[[{"header":{"parameterUnit":"m.s-1","parameterCategory":1,"la1":30.2991,"la2":30.254,"lo1":-89.0895,"lo2":-89.0444,"dy":0.0017,"dx":0.0017,"nx":28,"ny":28,"refTime":"2025-09-08T09:00:00:Z","depth":0,"parameterNumber":2,"parameterNumberName":"U-component_of_WINDS"},"data":[0,0,0,0,0,0,0,0,0,0,0,0,0,0,0,0,0,0,0,0,0,0,0,0,0,0,0,0,0,0,0,0,0,0,0,0,0,0,0,0,0,0,0,0,0,0,0,0,0,0,0,0,0,0,0,0,0,0,-3.3147,-3.3148,0,-3.3215,-3.3216,-3.3216,-3.3113,-3.311,-3.3106,-3.3103,-3.3173,-3.3178,-3.3183,0,0,0,0,0,0,0,0,0,0,0,0,0,-3.2929,-3.2934,-3.3147,-3.3148,-3.3149,-3.3215,-3.3216,-3.3217,-3.3114,-3.3109,-3.3105,-3.3101,-3.3171,-3.3177,-3.3184,0,0,0,0,0,0,0,0,0,0,0,0,0,-3.3013,-3.2935,-3.3147,-3.3106,-3.3102,-3.3215,-3.3216,-3.3217,-3.3115,-3.3109,-3.3104,-3.3099,-3.3169,-3.3177,-3.3185,-3.3341,0,0,-3.3208,-3.3212,0,0,0,0,0,0,0,0,-3.3008,-3.3021,-3.3111,-3.3109,-3.3105,-3.315,-3.3164,-3.3259,-3.3116,-3.311,-3.3102,-3.3096,-3.317,-3.3177,-3.3202,-3.3344,-3.3347,-3.3209,-3.3214,-3.3217,-3.322,0,0,0,0,0,0,0,-3.3003,-3.3018,-3.3174,-3.3112,-3.3109,-3.3083,-3.3089,-3.3182,-3.3169,-3.311,-3.3103,-3.3112,-3.3167,-3.3195,-3.3203,-3.3348,-3.3209,-3.3216,-3.3221,-3.3224,-3.3622,-3.3628,0,0,0,0,0,0,-3.3002,-3.3014,-3.3172,-3.3176,-3.3043,-3.3092,-3.3098,-3.3141,-3.3168,-3.3167,-3.3117,-3.3107,-3.3184,-3.3194,-3.3205,-3.339,-3.3217,-3.3225,-3.3229,-3.3616,-3.3623,-3.363,0,0,0,0,0,0,-3.2998,-3.3017,-3.3169,-3.3093,-3.311,-3.3101,-3.315,-3.3145,-3.3172,-3.3173,-3.317,-3.3147,-3.318,-3.3194,-3.3308,-3.3391,-3.3228,-3.3235,-3.3609,-3.3618,-3.3627,-3.3762,0,0,0,0,0,0,-3.2992,-3.3016,-3.3076,-3.3095,-3.3115,-3.3272,-3.3155,-3.3151,-3.3186,-3.3174,-3.3201,-3.32,-3.3177,-3.3297,-3.3316,-3.3399,-3.3241,-3.3602,-3.3613,-3.3624,-3.375,-3.3775,-3.3795,0,0,0,0,0,-3.2984,-3.3111,-3.3079,-3.3099,-3.3189,-3.3277,-3.3288,-3.3258,-3.3193,-3.3253,-3.3253,-3.3199,-3.3378,-3.3309,-3.333,-3.3417,-3.3597,-3.361,-3.3623,-3.374,-3.377,-3.3795,0,0,0,0,0,0,-3.3103,-3.3113,-3.3078,-3.3215,-3.3246,-3.3259,-3.3334,-3.3291,-3.3341,-3.3328,-3.3289,-3.3296,-3.3418,-3.3428,-3.3351,-3.3569,-3.3477,-3.3495,-3.3559,-3.3587,-3.3609,-3.3605,-3.3248,0,0,0,0,0,-3.3145,-3.3215,-3.322,-3.334,-3.3358,-3.3343,-3.338,-3.3355,-3.3385,-3.3398,-3.3406,-3.3438,-3.3501,-3.3544,-3.3603,-3.375,-3.3755,-3.382,-3.3843,-3.3861,-3.3878,-3.3957,-3.3986,-3.3673,-3.3673,-3.3673,0,0,-3.3233,-3.3247,-3.3294,-3.3365,-3.3385,-3.3459,-3.3355,-3.3437,-3.3492,-3.341,-3.3519,-3.3526,-3.3559,-3.3691,-3.3749,-3.3703,-3.3965,-3.3878,-3.3893,-3.3899,-3.3973,-3.4003,-3.403,-3.3682,-3.368,-3.3679,0,0,-3.343,-3.3448,-3.355,-3.3573,-3.3606,-3.3595,-3.362,-3.3639,-3.3641,-3.3749,-3.3689,-3.3753,-3.3863,-3.3889,-3.3917,-3.4123,-3.4075,-3.4143,-3.4261,-3.4339,-3.4364,-3.4385,-3.446,-3.4487,-3.4159,-3.4159,-3.4159,0,-3.3536,-3.3644,-3.3608,-3.3695,-3.3728,-3.3657,-3.376,-3.3784,-3.3835,-3.3859,-3.3806,-3.3942,-3.3959,-3.4096,-3.4147,-3.4171,-3.4198,-3.4141,-3.4363,-3.4384,-3.4404,-3.4475,-3.4503,-3.4167,-3.4166,-3.4165,-3.4165,0,-3.3773,-3.3849,-3.3927,-3.3978,-3.4019,-3.4114,-3.4093,-3.4139,-3.4109,-3.4104,-3.4215,-3.4232,-3.4293,-3.4323,-3.4295,-3.4456,-3.4426,-3.4369,-3.4275,-3.4443,-3.4508,-3.4535,-3.4179,-3.4176,-3.4174,-3.4172,0,0,-3.405,-3.4077,-3.4107,-3.4129,-3.4159,-3.4217,-3.4308,-3.4367,-3.4408,-3.4444,-3.452,-3.4614,-3.4561,-3.4592,-3.4566,-3.4634,-3.4797,-3.4568,-3.4568,-3.4611,-3.4977,-3.5021,-3.5053,-3.4764,-3.4769,-3.4773,-3.4974,0,-3.4248,-3.4405,-3.4375,-3.4529,-3.4599,-3.4531,-3.461,-3.4638,-3.4635,-3.4694,-3.469,-3.4758,-3.4682,-3.47,-3.4764,-3.4764,-3.487,-3.4749,-3.4836,-3.4839,-3.4832,-3.5087,-3.5135,-3.5324,-3.5,-3.5004,-3.5007,0,-3.4501,-3.4547,-3.4708,-3.4726,-3.4754,-3.4826,-3.4878,-3.4934,-3.4963,-3.4956,-3.4991,-3.4952,-3.5042,-3.4946,-3.507,-3.4988,-3.5021,-3.5026,-3.5033,-3.5042,-3.4935,-3.5105,-3.5383,-3.5413,-3.5047,-3.5044,-3.5041,0,-3.4689,-3.479,-3.4899,-3.492,-3.4944,-3.4996,-3.5008,-3.5032,-3.5069,-3.5113,-3.5137,-3.5192,-3.5222,-3.5265,-3.5242,-3.5173,-3.5371,-3.5272,-3.5368,-3.5369,-3.5415,-3.5413,-3.5705,-3.5433,-3.5433,-3.5432,-3.5432,0,-3.4914,-3.5016,-3.4984,-3.5052,-3.5163,-3.5127,-3.5238,-3.5242,-3.5264,-3.5331,-3.5275,-3.5339,-3.5303,-3.5364,-3.5346,-3.5452,-3.5466,-3.5463,-3.5458,-3.547,-3.5471,-3.5493,-3.548,-3.544,-3.5438,-3.5437,-3.5436,0,-3.5144,-3.5127,-3.5242,-3.5254,-3.526,-3.5342,-3.5352,-3.5415,-3.5407,-3.5493,-3.5511,-3.5499,-3.5568,-3.5548,-3.5623,-3.5611,-3.5746,-3.5722,-3.5737,-3.5732,-3.5829,-3.5821,-3.6148,-3.6189,-3.589,-3.5892,-3.5895,0,-3.5291,-3.5367,-3.5388,-3.5428,-3.5445,-3.5511,-3.5549,-3.5515,-3.5556,-3.5594,-3.5653,-3.5717,-3.5767,-3.5881,-3.5879,-3.5936,-3.5914,-3.6025,-3.5923,-3.5932,-3.5918,-3.5915,-3.5922,-3.6046,-3.6049,-3.6052,-3.6054,0,-3.5553,-3.554,-3.5596,-3.565,-3.5696,-3.5736,-3.5771,-3.5808,-3.5776,-3.5825,-3.5895,-3.5934,-3.601,-3.6075,-3.6126,-3.6138,-3.6093,-3.6086,-3.6112,-3.6126,-3.6132,-3.6131,-3.5794,-3.6079,-3.6077,-3.6075,-3.6074,-3.6073,-3.5747,-3.5811,-3.5836,-3.59,-3.5923,-3.5957,-3.6016,-3.6015,-3.6073,-3.6133,-3.6108,-3.6189,-3.6215,-3.6279,-3.6298,-3.6361,-3.6319,-3.6356,-3.6365,-3.6375,-3.6388,-3.612,-3.637,-3.6369,-3.6369,-3.6368,-3.6367,0,-3.6007,-3.6019,-3.6078,-3.6129,-3.618,-3.613,-3.6166,-3.6211,-3.6283,-3.6311,-3.6361,-3.6441,-3.6503,-3.6505,-3.6563,-3.6613,-3.6593,-3.6629,-3.6626,-3.663,-3.6422,-3.6395,-3.6644,-3.6644,-3.6644,-3.6644,-3.6644,-3.6644,-3.6149,-3.6256,-3.6246,-3.6364,-3.6375,-3.6454,-3.6478,-3.6509,-3.6531,-3.6624,-3.6675,-3.6675,-3.6693,-3.6751,-3.6806,-3.6805,-3.6829,-3.6874,-3.6866,-3.6672,-3.6645,-3.6618,-3.6593,-3.688,-3.688,-3.7068,-3.707,-3.7071]},{"header":{"parameterUnit":"m.s-1","parameterCategory":1,"la1":30.2991,"la2":30.254,"lo1":-89.0895,"lo2":-89.0444,"dy":0.0017,"dx":0.0017,"nx":28,"ny":28,"refTime":"2025-09-08T09:00:00:Z","depth":0,"parameterNumber":3,"parameterNumberName":"V-component_of_WINDS"},"data":[0,0,0,0,0,0,0,0,0,0,0,0,0,0,0,0,0,0,0,0,0,0,0,0,0,0,0,0,0,0,0,0,0,0,0,0,0,0,0,0,0,0,0,0,0,0,0,0,0,0,0,0,0,0,0,0,0,0,-5.9887,-5.9887,0,-5.9936,-5.9936,-5.9937,-5.9844,-5.9841,-5.9838,-5.9835,-5.9882,-5.9886,-5.989,0,0,0,0,0,0,0,0,0,0,0,0,0,-5.9708,-5.9712,-5.9887,-5.9887,-5.9888,-5.9936,-5.9936,-5.9937,-5.9845,-5.9841,-5.9837,-5.9834,-5.988,-5.9885,-5.989,0,0,0,0,0,0,0,0,0,0,0,0,0,-5.9774,-5.9713,-5.9886,-5.9848,-5.9845,-5.9935,-5.9936,-5.9937,-5.9846,-5.9841,-5.9836,-5.9832,-5.9879,-5.9885,-5.9891,-6.002,0,0,-5.9909,-5.9912,0,0,0,0,0,0,0,0,-5.977,-5.9781,-5.9853,-5.9851,-5.9847,-5.9879,-5.989,-5.9965,-5.9847,-5.9845,-5.9835,-5.983,-5.9884,-5.989,-5.9909,-6.0022,-6.0024,-5.991,-5.9914,-5.9916,-5.9918,0,0,0,0,0,0,0,-5.9766,-5.9778,-5.9906,-5.9854,-5.9851,-5.9826,-5.983,-5.9904,-5.989,-5.9845,-5.9838,-5.9846,-5.9882,-5.9903,-5.9909,-6.0025,-5.991,-5.9915,-5.9919,-5.9921,-6.0245,-6.025,0,0,0,0,0,0,-5.9767,-5.9775,-5.9904,-5.9907,-5.9797,-5.9833,-5.9838,-5.9874,-5.9889,-5.9887,-5.9849,-5.9841,-5.9895,-5.9902,-5.991,-6.0062,-5.9916,-5.9922,-5.9925,-6.0241,-6.0246,-6.0252,0,0,0,0,0,0,-5.9763,-5.9779,-5.9902,-5.9839,-5.9853,-5.9841,-5.9882,-5.9877,-5.9898,-5.9892,-5.9889,-5.9874,-5.9892,-5.9902,-5.9993,-6.0062,-5.9925,-5.993,-6.0235,-6.0242,-6.0249,-6.0367,0,0,0,0,0,0,-5.9759,-5.9779,-5.9829,-5.9841,-5.9857,-5.9986,-5.9886,-5.9881,-5.9909,-5.9899,-5.9914,-5.9912,-5.9889,-5.9985,-6.0,-6.0068,-5.9935,-6.0228,-6.0238,-6.0247,-6.0357,-6.0377,-6.0395,0,0,0,0,0,-5.9753,-5.986,-5.9832,-5.9848,-5.992,-5.9991,-5.9999,-5.9971,-5.9915,-5.9965,-5.9961,-5.9912,-6.0053,-5.9995,-6.0011,-6.0082,-6.0224,-6.0235,-6.0246,-6.0348,-6.0373,-6.0395,0,0,0,0,0,0,-5.9855,-5.9861,-5.983,-5.9945,-5.9968,-5.9975,-6.0037,-5.9999,-6.0037,-6.0026,-5.9987,-5.9992,-6.0091,-6.0095,-6.0031,-6.0207,-6.0129,-6.0143,-6.0201,-6.0225,-6.0243,-6.024,-5.994,0,0,0,0,0,-5.9891,-5.9949,-5.9951,-6.0051,-6.0065,-6.0049,-6.0079,-6.0055,-6.0077,-6.0086,-6.0088,-6.0111,-6.0159,-6.0192,-6.0237,-6.0357,-6.0358,-6.0414,-6.0433,-6.0449,-6.0462,-6.0524,-6.0548,-6.0288,-6.0288,-6.0288,0,0,-5.9966,-5.9976,-6.0015,-6.0072,-6.0087,-6.0147,-6.0058,-6.0125,-6.0168,-6.0096,-6.0182,-6.0185,-6.0207,-6.0313,-6.036,-6.032,-6.0534,-6.0463,-6.0476,-6.048,-6.0538,-6.0562,-6.0584,-6.0296,-6.0294,-6.0293,0,0,-6.0132,-6.0147,-6.0232,-6.0249,-6.0273,-6.0262,-6.0282,-6.0295,-6.0294,-6.0381,-6.0327,-6.0377,-6.0463,-6.048,-6.05,-6.0673,-6.0628,-6.0688,-6.0788,-6.0849,-6.0869,-6.0887,-6.0947,-6.0969,-6.0701,-6.0702,-6.0702,0,-6.0221,-6.0311,-6.028,-6.0351,-6.0376,-6.0315,-6.0399,-6.0417,-6.0454,-6.0473,-6.0428,-6.0533,-6.0544,-6.0652,-6.0694,-6.0713,-6.0734,-6.0686,-6.0869,-6.0887,-6.0903,-6.096,-6.0983,-6.0709,-6.0708,-6.0707,-6.0706,0,-6.0418,-6.0481,-6.0546,-6.0585,-6.0618,-6.0696,-6.0675,-6.0712,-6.0685,-6.0678,-6.0766,-6.0777,-6.0822,-6.0846,-6.082,-6.0951,-6.0925,-6.0876,-6.0795,-6.0935,-6.0988,-6.101,-6.0719,-6.0716,-6.0714,-6.0712,0,0,-6.065,-6.0671,-6.0696,-6.0712,-6.0734,-6.0781,-6.0854,-6.09,-6.0932,-6.0959,-6.1019,-6.1092,-6.1046,-6.1069,-6.1045,-6.1099,-6.1232,-6.1042,-6.1042,-6.1076,-6.1375,-6.1412,-6.1437,-6.1204,-6.1208,-6.1211,-6.1373,0,-6.0815,-6.0943,-6.0917,-6.1042,-6.1099,-6.104,-6.1104,-6.1124,-6.1119,-6.1164,-6.1158,-6.121,-6.1147,-6.116,-6.1211,-6.1206,-6.1292,-6.1194,-6.1257,-6.126,-6.1253,-6.1465,-6.1504,-6.1656,-6.1393,-6.1397,-6.1399,0,-6.1024,-6.106,-6.1191,-6.1203,-6.1226,-6.1284,-6.1323,-6.1368,-6.1388,-6.138,-6.1406,-6.1371,-6.1442,-6.1362,-6.1458,-6.1392,-6.1416,-6.1418,-6.1423,-6.1427,-6.1338,-6.1474,-6.1704,-6.1727,-6.1432,-6.1429,-6.1427,0,-6.1178,-6.126,-6.1349,-6.1364,-6.1381,-6.1423,-6.1432,-6.1447,-6.1476,-6.1509,-6.1527,-6.1568,-6.159,-6.1622,-6.1598,-6.1542,-6.1698,-6.1616,-6.1692,-6.1693,-6.1727,-6.1725,-6.1964,-6.1745,-6.1744,-6.1744,-6.1743,0,-6.1364,-6.1446,-6.1418,-6.1473,-6.1562,-6.1531,-6.162,-6.1621,-6.1636,-6.1688,-6.164,-6.169,-6.1655,-6.1702,-6.1684,-6.1765,-6.1776,-6.1771,-6.1765,-6.1775,-6.1775,-6.1789,-6.1778,-6.175,-6.1749,-6.1747,-6.1746,0,-6.1551,-6.1536,-6.1629,-6.1637,-6.1641,-6.1707,-6.1713,-6.1762,-6.1754,-6.1821,-6.1834,-6.182,-6.1873,-6.1852,-6.1907,-6.1895,-6.1999,-6.198,-6.1993,-6.1987,-6.2064,-6.2057,-6.232,-6.2352,-6.2114,-6.2116,-6.2118,0,-6.167,-6.1732,-6.1747,-6.1779,-6.1792,-6.1844,-6.1873,-6.1844,-6.1876,-6.1903,-6.1949,-6.1997,-6.2034,-6.212,-6.2114,-6.2155,-6.2135,-6.2225,-6.2141,-6.2149,-6.2135,-6.2132,-6.2137,-6.2241,-6.2244,-6.2246,-6.2248,0,-6.1883,-6.1872,-6.1916,-6.1958,-6.1994,-6.2025,-6.2052,-6.2081,-6.2052,-6.209,-6.2143,-6.2172,-6.2229,-6.2276,-6.2313,-6.232,-6.2279,-6.2274,-6.2294,-6.2304,-6.2309,-6.2306,-6.2037,-6.2268,-6.2266,-6.2265,-6.2264,-6.2263,-6.2039,-6.209,-6.2109,-6.2159,-6.2176,-6.2202,-6.2249,-6.2247,-6.2291,-6.2335,-6.2315,-6.2376,-6.2393,-6.2439,-6.2451,-6.2497,-6.2462,-6.2491,-6.2498,-6.2505,-6.2515,-6.2303,-6.2504,-6.2503,-6.2503,-6.2502,-6.2502,0,-6.2247,-6.2256,-6.2303,-6.2342,-6.2382,-6.2341,-6.2368,-6.2403,-6.2458,-6.2478,-6.2515,-6.2576,-6.2622,-6.2619,-6.2661,-6.2699,-6.2681,-6.2711,-6.2707,-6.2709,-6.2544,-6.2523,-6.2724,-6.2724,-6.2724,-6.2724,-6.2724,-6.2724,-6.236,-6.2445,-6.2437,-6.2529,-6.2537,-6.2598,-6.2616,-6.2639,-6.2655,-6.2725,-6.2763,-6.2762,-6.2772,-6.2814,-6.2854,-6.2852,-6.2869,-6.2906,-6.2897,-6.2743,-6.2721,-6.27,-6.2679,-6.291,-6.291,-6.3057,-6.3058,-6.3059]}]]